This is the latest recevied weather packets stored in our database for station/object K6JWN. If no packets are shown the sender has not sent any weather packets the latest 1 day(s).
| Time | Temp. | Humidity | Pressure | Rain* | Wind** | Luminosity | Snow |
|---|---|---|---|---|---|---|---|
| 1836273911 | 23.33° C | 53% | 1012.3 hPa | 0 mm | 0.89 m/s, 45° | - | - |
| 1778057356 | 13.89° C | 76% | 1018.1 hPa | 0 mm | 0.45 m/s, 225° | - | - |
| 1778056756 | 13.89° C | 76% | 1018.2 hPa | 0 mm | 0.45 m/s, 225° | - | - |
| 1778056156 | 13.89° C | 76% | 1018.3 hPa | 0 mm | 0.45 m/s, 225° | - | - |
| 1778055556 | 13.89° C | 77% | 1018.3 hPa | 0 mm | 0.45 m/s, 45° | - | - |
| 1778054956 | 13.89° C | 78% | 1018.2 hPa | 0 mm | 0.45 m/s, 225° | - | - |
| 1778051356 | 13.89° C | 77% | 1017.6 hPa | 0 mm | 0.45 m/s, 225° | - | - |
| 1778050756 | 14.44° C | 77% | 1017.5 hPa | 0 mm | 0.45 m/s, 225° | - | - |
| 1778050157 | 14.44° C | 76% | 1017.5 hPa | 0 mm | 0.45 m/s, 225° | - | - |
| 1778049555 | 14.44° C | 76% | 1017.4 hPa | 0 mm | 0.45 m/s, 225° | - | - |
| 1778048957 | 14.44° C | 76% | 1017.3 hPa | 0 mm | 0.89 m/s, 225° | - | - |
| 1778048357 | 14.44° C | 76% | 1017.2 hPa | 0 mm | 1.34 m/s, 225° | - | - |
| 1778047757 | 14.44° C | 76% | 1017 hPa | 0 mm | 0.89 m/s, 225° | - | - |
| 1778047157 | 14.44° C | 76% | 1017.1 hPa | 0 mm | 0.45 m/s, 225° | - | - |
| 1778046557 | 14.44° C | 76% | 1016.9 hPa | 0 mm | 0.89 m/s, 225° | - | - |
| 1778045957 | 14.44° C | 76% | 1016.7 hPa | 0 mm | 1.34 m/s, 225° | - | - |
| 1778045357 | 14.44° C | 76% | 1016.7 hPa | 0 mm | 1.79 m/s, 225° | - | - |
| 1778044757 | 14.44° C | 75% | 1016.6 hPa | 0 mm | 1.34 m/s, 225° | - | - |
| 1778044157 | 14.44° C | 75% | 1016.5 hPa | 0 mm | 0.89 m/s, 225° | - | - |
| 1778043557 | 15° C | 74% | 1016.5 hPa | 0 mm | 0.89 m/s, 225° | - | - |
| 1778042957 | 15° C | 74% | 1016.4 hPa | 0 mm | 1.34 m/s, 225° | - | - |
| 1778042357 | 15.56° C | 73% | 1016.2 hPa | 0 mm | 1.79 m/s, 225° | - | - |
| 1778041757 | 16.11° C | 72% | 1015.9 hPa | 0 mm | 2.24 m/s, 225° | - | - |
| 1778041157 | 16.67° C | 73% | 1015.8 hPa | 0 mm | 1.79 m/s, 225° | - | - |
| 1778040557 | 16.67° C | 73% | 1015.8 hPa | 0 mm | 0.45 m/s, 225° | - | - |
* Rain latest hour (hover to see other rain measurements)
** Current wind speed in m/s (hover to see current wind gust speed)